Location: Altleiningen
(49.5078°N, 8.0741°E)
Time: 15:55:05
(UTC+00:00)

Cosmos 1833 Rocket - Pass Details

Date: 14 June 2025
Orbit: 832 x 837 km, 71.0° (Epoch: 19 July)

Event Time Altitude Azimuth Distance (km) Brightness Sun altitude
Rises 23:30:18 0° 333° (NNW) 3,396 7.0 -17.2°
Reaches altitude 10° 23:32:51 10° 339° (NNW) 2,457 6.2 -17.2°
Maximum altitude 23:38:18 48° 54° (NE) 1,085 3.5 -17.1°
Drops below altitude 10° 23:43:42 10° 128° (SE) 2,440 4.8 -17.1°
Enters shadow 23:43:52 - 129° (SE) 2,500 4.8 -17.1°
